Weather in Marhamat

Uzbekistan     40˚30′13″N   72˚20′00″E
temp.,
°C
wind,
m/s
gust,
m/s
humid.,
%
clouds,
%
prec.,
mm/h
press.,
hPa
HPBL,
m
3 december, thu
thu323:00+6˚sse1286100 0.3 102722
02:00+5˚ssw2295100 2.3 102756
05:00+6˚ne1292100 3.4 102740
08:00+5˚sw1197100 0.3 102827
11:00+7˚nne1189100 0.9 1027132
14:00+8˚nnw218194 0.0 1024378
17:00+7˚se008897 0.0 102622
20:00+6˚nne1195100 0.4 102525
4 december, fri
fri423:00+6˚sse0097100 2.1 102434
02:00+6˚wsw2399100 3.6 1023131
05:00+6˚sw4789100 6.5 1023305
08:00+6˚ssw2386100 1.6 1024170
11:00+7˚nnw3386100 1.9 1024303
14:00+6˚n2287100 0.1 1022227
17:00+5˚n1192100 0.9 1024154
20:00+5˚w1492100 1.2 1026348
5 december, sat
sat523:00+5˚w1381100 1.6 1026434
02:00+4˚n1269100 0.0 1027305
05:00+2˚ene1192100 0.1 1028146
08:00+3˚ese1287100 0.1 1029166
11:00+5˚w2357100 0.1 1027709
14:00+6˚nnw225086 0.0 1026907
17:00+4˚ne226793 0.0 102954
20:00+3˚ene127797 0.0 103126
6 december, sun
sun623:00+2˚nne118198 0.0 103122
02:00+1˚w118698 0.0 103122
05:00wsw118792 0.0 103122
08:00+1˚w008655 0.0 103322
11:00+4˚nnw116538 0.0 1030402
14:00+6˚n114812 0.0 1028728
17:00+4˚nne125318 0.0 102922
20:00+3˚e115859 0.0 102922
7 december, mon
mon723:00+2˚wnw016279 0.0 102722
02:00+2˚ene0063100 0.0 102622
05:00+2˚ene0063100 0.0 102522
08:00+2˚sw1162100 0.0 102522
11:00+4˚wsw3350100 0.0 1024349
14:00+5˚wnw3349100 0.0 1024669
17:00+3˚nnw2369100 0.0 1027119
20:00+2˚n1171100 0.0 102880